This demonstration page uses our WeatherBlox Daily Observations layout. Learn more.

Left ArrowRight Arrow

47.50024, -111.30081

Hourly Observations for April 20, 2022

Temp ( °F °C ) Dew Point ( °F °C ) Humidity (%) Winds ( mph kmh ) Pressure ( in mb ) Visibility ( mi km ) Precip ( " mm )
12:53 am 00:53 Clear 33 0.6 17 -8.3 52 52 WSW 14 22 29.70 1006 10 16 0.00 0.00
1:53 am 01:53 Clear 32 0 17 -8.3 54 54 WSW 15 24 29.70 1006 10 16 0.00 0.00
2:53 am 02:53 Clear 30 -1.1 19 -7.2 64 64 WSW 15 24 29.71 1006 10 16 0.00 0.00
3:53 am 03:53 Clear 32 0 19 -7.2 59 59 WSW 10 17 29.72 1007 10 16 0.00 0.00
4:53 am 04:53 Clear 33 0.6 19 -7.2 56 56 WSW 12 19 29.74 1007 10 16 0.00 0.00
5:53 am 05:53 Clear 31 -0.6 19 -7.2 61 61 WSW 10 17 29.77 1008 10 16 0.00 0.00
6:53 am 06:53 Sunny 28 -2.2 18 -7.8 66 66 NNW 7 11 29.82 1010 10 16 0.00 0.00
7:53 am 07:53 Sunny 32 0 22 -5.6 66 66 N 9 15 29.85 1011 10 16 0.00 0.00
8:53 am 08:53 Sunny 35 1.7 23 -5 61 61 NNW 9 15 29.89 1012 10 16 0.00 0.00
9:53 am 09:53 Mostly Cloudy 35 1.7 22 -5.6 59 59 NNW 10 17 29.92 1013 N/A 0.00 0.00
9:56 am 09:56 Mostly Cloudy 35 1.7 22 -5.6 59 59 NNW 10 17 29.93 1013 10 16 0.00 0.00
10:53 am 10:53 Cloudy 38 3.3 22 -5.6 52 52 undefined N/A 29.94 1014 10 16 0.00 0.00
11:53 am 11:53 Cloudy 40 4.4 23 -5 51 51 NNW 17 28 29.97 1015 10 16 0.00 0.00
12:53 pm 12:53 Mostly Sunny 46 7.8 21 -6.1 37 37 N 13 20 29.96 1015 10 16 0.00 0.00
1:53 pm 13:53 Partly Cloudy 43 6.1 20 -6.7 40 40 NNW 13 20 29.98 1015 10 16 0.00 0.00
2:53 pm 14:53 Partly Cloudy 45 7.2 19 -7.2 35 35 WNW 9 15 29.98 1015 10 16 0.00 0.00
3:53 pm 15:53 Mostly Cloudy 42 5.6 18 -7.8 38 38 NNW 8 13 30.00 1016 10 16 0.00 0.00
4:53 pm 16:53 Mostly Cloudy 45 7.2 17 -8.3 33 33 N 7 11 29.98 1015 10 16 0.00 0.00
5:53 pm 17:53 Partly Cloudy 44 6.7 17 -8.3 34 34 E 6 9 29.99 1016 10 16 0.00 0.00
6:53 pm 18:53 Sunny 45 7.2 17 -8.3 33 33 NNE 8 13 29.98 1015 10 16 0.00 0.00
7:53 pm 19:53 Sunny 40 4.4 18 -7.8 41 41 NE 14 22 29.98 1015 10 16 0.00 0.00
8:53 pm 20:53 Clear 37 2.8 18 -7.8 46 46 ENE 9 15 29.99 1016 10 16 0.00 0.00
9:53 pm 21:53 Clear 36 2.2 18 -7.8 48 48 ENE 14 22 30.00 1016 10 16 0.00 0.00
10:53 pm 22:53 Mostly Cloudy 34 1.1 19 -7.2 54 54 E 10 17 30.01 1016 10 16 0.00 0.00
11:53 pm 23:53 Partly Cloudy 33 0.6 19 -7.2 56 56 E 13 20 29.98 1015 10 16 0.00 0.00

Powered by AerisWeather